Guam Agana, GU

1:32 PM ChST on December 15, 2019 (GMT +1000)
Guam International

Weather History for PGUM - November, 2019

Change the Weather History Date:

Wednesday, November 13, 2019

  Actual Average Record
Temperature  
Mean Temperature 84 °F -  
Max Temperature 89 °F 85 °F 91 °F (2015)
Min Temperature 78 °F 75 °F 73 °F (2005)
Cooling Degree Days 18    
Growing Degree Days 34 (Base 50)    
Moisture  
Dew Point 74 °F    
Average Humidity 75    
Maximum Humidity 90    
Minimum Humidity 57    
Precipitation  
Precipitation 0.00 in - - ()
Sea Level Pressure  
Sea Level Pressure 29.86 in    
Wind  
Wind Speed 5 mph ()    
Max Wind Speed 16 mph    
Max Gust Speed -    
Visibility 9.8 miles    
Events Rain    
Averages and records for this station are not official NWS values.
T = Trace of Precipitation, MM = Missing Value Source: Averaged Metar Reports

Daily Weather History Graph

Daily Weather History Graph

Search for Another Location

Airport or City:

Astronomy

Nov. 13, 2019 Rise Set
Actual Time 6:18 AM ChST 5:50 PM ChST
Civil Twilight 5:56 AM ChST 6:13 PM ChST
Nautical Twilight 5:30 AM ChST 6:38 PM ChST
Astronomical Twilight 5:05 AM ChST 7:04 PM ChST
Moon 6:29 PM ChST (11/13) 6:36 AM ChST (11/13)
Length of Visible Light 12h 16m
Length of Day
11h 31m
Full, 100% of the Moon is Illuminated
Nov 13
Full
Nov 20
Last Quarter
Nov 27
New
Dec 4
First Quarter
Dec 12
Full

Hourly Weather History & Observations

Time (ChST) Temp. Heat Index Dew Point Humidity Pressure Visibility Wind Dir Wind Speed Gust Speed Precip Events Conditions
12:54 AM 79.0 °F - 73.9 °F 84% 29.88 in 10.0 mi East 3.5 mph - N/A   Clear
1:54 AM 79.0 °F - 73.9 °F 84% 29.86 in 10.0 mi Calm Calm - N/A   Clear
2:54 AM 78.1 °F - 73.9 °F 87% 29.84 in 10.0 mi Calm Calm - N/A   Partly Cloudy
3:54 AM 78.1 °F - 73.9 °F 87% 29.83 in 10.0 mi ENE 3.5 mph - N/A   Clear
4:54 AM 79.0 °F - 73.9 °F 84% 29.84 in 10.0 mi East 3.5 mph - N/A   Clear
5:54 AM 79.0 °F - 73.9 °F 84% 29.86 in 10.0 mi ENE 4.6 mph - N/A   Clear
6:54 AM 79.0 °F - 73.9 °F 84% 29.88 in 10.0 mi ENE 4.6 mph - N/A   Partly Cloudy
7:54 AM 82.9 °F 89.4 °F 73.9 °F 74% 29.89 in 10.0 mi NE 5.8 mph - N/A   Partly Cloudy
8:54 AM 84.9 °F 93.3 °F 75.0 °F 72% 29.91 in 10.0 mi Variable 4.6 mph - N/A   Scattered Clouds
9:16 AM 86.0 °F 93.8 °F 73.9 °F 67% 29.94 in 10.0 mi NNE 9.2 mph - N/A   Mostly Cloudy
9:24 AM 86.0 °F 95.1 °F 75.0 °F 70% 29.93 in 10.0 mi NE 8.1 mph - N/A   Scattered Clouds
9:54 AM 87.1 °F 96.3 °F 75.0 °F 67% 29.91 in 10.0 mi Variable 5.8 mph - N/A   Scattered Clouds
10:03 AM 87.1 °F 95.4 °F 73.9 °F 65% 29.93 in 10.0 mi NE 10.4 mph - N/A   Mostly Cloudy
10:18 AM 86.0 °F 93.8 °F 73.9 °F 67% 29.93 in 10.0 mi NNE 6.9 mph - N/A   Scattered Clouds
10:54 AM 84.9 °F 92.1 °F 73.9 °F 69% 29.89 in 10.0 mi NE 10.4 mph - N/A   Mostly Cloudy
11:54 AM 87.1 °F 96.3 °F 75.0 °F 67% 29.86 in 10.0 mi ENE 8.1 mph - N/A   Clear
12:54 PM 89.1 °F 97.0 °F 73.0 °F 59% 29.83 in 10.0 mi NNE 11.5 mph - N/A   Partly Cloudy
1:54 PM 89.1 °F 96.0 °F 72.0 °F 57% 29.81 in 10.0 mi NNE 10.4 mph - N/A   Partly Cloudy
2:54 PM 88.0 °F 96.5 °F 73.9 °F 63% 29.80 in 10.0 mi North 10.4 mph - N/A   Partly Cloudy
3:54 PM 87.1 °F 93.6 °F 72.0 °F 61% 29.81 in 10.0 mi NNE 11.5 mph - N/A   Partly Cloudy
4:54 PM 84.9 °F 91.4 °F 73.0 °F 67% 29.81 in 10.0 mi NNE 8.1 mph - N/A   Partly Cloudy
5:54 PM 82.9 °F 90.2 °F 75.0 °F 77% 29.83 in 10.0 mi NNE 9.2 mph - N/A   Partly Cloudy
6:54 PM 82.0 °F 89.4 °F 75.9 °F 82% 29.84 in 10.0 mi NE 6.9 mph - N/A   Clear
7:54 PM 82.0 °F 89.4 °F 75.9 °F 82% 29.86 in 10.0 mi NE 8.1 mph - N/A   Scattered Clouds
8:54 PM 81.0 °F 86.7 °F 75.0 °F 82% 29.86 in 10.0 mi ENE 4.6 mph - N/A   Scattered Clouds
9:54 PM 80.1 °F 85.4 °F 75.9 °F 87% 29.86 in 10.0 mi NNE 6.9 mph - 0.00 in Rain Light Rain
10:54 PM 80.1 °F 85.4 °F 75.9 °F 87% 29.86 in 10.0 mi NE 5.8 mph - 0.00 in   Clear
11:54 PM 79.0 °F - 75.9 °F 90% 29.86 in 4.0 mi NNE 16.1 mph - 0.00 in Rain Light Rain